Dubrovnik Airport


Codes: LDDU/DBV
Name: Dubrovnik Airport
City: Dubrovnik
Country: Croatia
Elevation: 527 ft.
Wikipedia:

Photos at Dubrovnik Airport


   Photos courtesy of SpottingLog. You can add your own sightings and photos by signing up for a free trial today.



9A-CTK, 17-May-2018
© Luke Jermy

TC-JPC, 17-May-2018
© Luke Jermy

OH-LZT, 11-May-2018
© Luke Jermy

G-EZTZ, 26-Aug-2011
© Tobias Hottinger

LN-DYQ, 26-Aug-2011
© Tobias Hottinger

OE-GSC, 26-Aug-2011
© Tobias Hottinger

HB-VOO, 26-Aug-2011
© Tobias Hottinger

G-DOCT, 31-May-2007
© Simon Fewkes-Ahearne

9A-CDB, 31-May-2007
© Simon Fewkes-Ahearne


Weather at Dubrovnik Airport


Time (UTC)DescriptionTempratureWindCloud coverageVisibilityPressureHumidity
13-Jun-2024 03:00Broken Clouds20°C4 mph, NE75%10000m1013hPa77%
13-Jun-2024 06:00Broken Clouds21°C7 mph, SE63%10000m1013hPa72%
13-Jun-2024 09:00Scattered Clouds22°C11 mph, SE28%10000m1014hPa69%
13-Jun-2024 12:00Clear Sky23°C13 mph, SE2%10000m1013hPa81%
13-Jun-2024 15:00Clear Sky24°C9 mph, SE0%10000m1012hPa69%
13-Jun-2024 18:00Light Rain22°C2 mph, W0%10000m1013hPa80%
13-Jun-2024 21:00Light Rain21°C7 mph, N66%10000m1014hPa76%
14-Jun-2024 00:00Light Rain19°C7 mph, N63%10000m1014hPa74%
14-Jun-2024 03:00Light Rain18°C7 mph, N0%10000m1014hPa74%
14-Jun-2024 06:00Clear Sky20°C7 mph, NW0%10000m1014hPa68%
14-Jun-2024 09:00Clear Sky21°C13 mph, W0%10000m1015hPa64%
14-Jun-2024 12:00Clear Sky21°C13 mph, NW3%10000m1015hPa66%
14-Jun-2024 15:00Broken Clouds21°C11 mph, NW78%10000m1015hPa68%
14-Jun-2024 18:00Broken Clouds21°C7 mph, NW82%10000m1015hPa74%
14-Jun-2024 21:00Clear Sky20°C4 mph, NE7%10000m1016hPa72%
15-Jun-2024 00:00Clear Sky20°C4 mph, E7%10000m1015hPa73%
15-Jun-2024 03:00Scattered Clouds19°C4 mph, E32%10000m1014hPa76%
15-Jun-2024 06:00Few Clouds21°C2 mph, SE16%10000m1014hPa69%
15-Jun-2024 09:00Clear Sky21°C4 mph, S0%10000m1015hPa71%
15-Jun-2024 12:00Scattered Clouds22°C7 mph, W31%10000m1014hPa69%
15-Jun-2024 15:00Scattered Clouds22°C9 mph, NW47%10000m1014hPa65%
15-Jun-2024 18:00Scattered Clouds21°C7 mph, N25%10000m1013hPa70%
15-Jun-2024 21:00Broken Clouds22°C4 mph, NE69%10000m1013hPa67%
16-Jun-2024 00:00Broken Clouds21°C2 mph, E66%10000m1014hPa69%
16-Jun-2024 03:00Broken Clouds21°C4 mph, E65%10000m1013hPa67%
16-Jun-2024 06:00Broken Clouds22°C4 mph, SE82%10000m1013hPa66%
16-Jun-2024 09:00Overcast Clouds22°C7 mph, S100%10000m1014hPa71%
16-Jun-2024 12:00Overcast Clouds23°C2 mph, S100%10000m1014hPa70%
16-Jun-2024 15:00Broken Clouds23°C2 mph, SW75%10000m1014hPa67%
16-Jun-2024 18:00Overcast Clouds24°C2 mph, W88%10000m1013hPa68%
16-Jun-2024 21:00Overcast Clouds23°C2 mph, NE97%10000m1014hPa68%
17-Jun-2024 00:00Overcast Clouds23°C4 mph, NE99%10000m1014hPa59%
17-Jun-2024 03:00Overcast Clouds24°C4 mph, E100%10000m1014hPa56%
17-Jun-2024 06:00Broken Clouds24°C2 mph, SW77%10000m1015hPa63%
17-Jun-2024 09:00Few Clouds25°C2 mph, SW13%10000m1016hPa60%
17-Jun-2024 12:00Few Clouds25°C4 mph, W13%10000m1016hPa54%
17-Jun-2024 15:00Clear Sky25°C7 mph, NW7%10000m1015hPa62%
17-Jun-2024 18:00Clear Sky25°C7 mph, NW4%10000m1015hPa65%
17-Jun-2024 21:00Clear Sky24°C4 mph, N0%10000m1016hPa69%
18-Jun-2024 00:00Clear Sky23°C4 mph, NE0%10000m1016hPa68%